TimeCST,TemperatureF,Dew PointF,Humidity,Sea Level PressureIn,VisibilityMPH,Wind Direction,Wind SpeedMPH,Gust SpeedMPH,PrecipitationIn,Events,Conditions,WindDirDegrees,DateUTC
12:52 AM,36.0,28.0,73,29.60,10.0,WSW,12.7,21.9,N/A,,Partly Cloudy,240,2014-02-21 06:52:00
1:52 AM,36.0,27.0,70,29.65,10.0,WSW,18.4,27.6,N/A,,Mostly Cloudy,250,2014-02-21 07:52:00
2:52 AM,36.0,27.0,70,29.66,10.0,West,25.3,32.2,0.00,,Overcast,260,2014-02-21 08:52:00
3:52 AM,35.1,25.0,67,29.68,10.0,West,20.7,-,0.00,,Overcast,270,2014-02-21 09:52:00
4:52 AM,33.1,24.1,70,29.72,10.0,West,25.3,38.0,0.00,,Overcast,260,2014-02-21 10:52:00
5:52 AM,33.1,23.0,66,29.75,10.0,West,25.3,34.5,0.00,,Overcast,260,2014-02-21 11:52:00
6:52 AM,32.0,23.0,69,29.77,10.0,West,18.4,-,N/A,,Mostly Cloudy,260,2014-02-21 12:52:00
7:52 AM,32.0,19.9,61,29.81,10.0,West,27.6,38.0,N/A,,Scattered Clouds,260,2014-02-21 13:52:00
8:52 AM,32.0,19.9,61,29.84,10.0,West,26.5,36.8,N/A,,Clear,270,2014-02-21 14:52:00
9:52 AM,34.0,19.9,56,29.86,10.0,West,27.6,35.7,N/A,,Clear,260,2014-02-21 15:52:00
10:52 AM,36.0,19.0,50,29.88,10.0,West,23.0,32.2,N/A,,Clear,260,2014-02-21 16:52:00
11:52 AM,39.0,21.9,50,29.87,10.0,West,23.0,32.2,N/A,,Clear,260,2014-02-21 17:52:00
12:52 PM,42.1,23.0,47,29.85,10.0,WSW,23.0,-,N/A,,Clear,250,2014-02-21 18:52:00
1:52 PM,45.0,24.1,44,29.86,10.0,WSW,20.7,26.5,N/A,,Clear,250,2014-02-21 19:52:00
2:52 PM,46.9,26.1,44,29.85,10.0,WSW,16.1,23.0,N/A,,Clear,250,2014-02-21 20:52:00
3:52 PM,46.9,26.1,44,29.85,10.0,WSW,11.5,-,N/A,,Clear,240,2014-02-21 21:52:00
4:52 PM,46.0,26.1,46,29.85,10.0,SW,5.8,-,N/A,,Overcast,220,2014-02-21 22:52:00
5:52 PM,43.0,28.0,56,29.85,10.0,Calm,Calm,-,N/A,,Overcast,0,2014-02-21 23:52:00
6:52 PM,39.9,27.0,60,29.84,10.0,Calm,Calm,-,N/A,,Overcast,0,2014-02-22 00:52:00
7:52 PM,42.1,27.0,55,29.85,10.0,South,3.5,-,N/A,,Overcast,180,2014-02-22 01:52:00
8:52 PM,42.1,26.1,53,29.87,10.0,West,10.4,-,N/A,,Mostly Cloudy,260,2014-02-22 02:52:00
9:52 PM,39.9,28.0,63,29.91,10.0,WSW,11.5,-,N/A,,Overcast,250,2014-02-22 03:52:00
10:52 PM,39.9,26.1,58,29.91,10.0,West,11.5,-,N/A,,Scattered Clouds,260,2014-02-22 04:52:00
11:52 PM,39.0,26.1,60,29.93,10.0,West,9.2,-,N/A,,Clear,270,2014-02-22 05:52:00